Find Local Weather

World > North America > United States > Wisconsin

Cambridge, Wisconsin Regional Weather

Lat: 43.01N, Lon: 89.02W
Wx Zone: WIZ063
Feedback
Expires:201809260100;;212303
ASUS43 KMKX 260021
RWRWI 

WISCONSIN REGIONAL WEATHER ROUNDUP
NATIONAL WEATHER SERVICE MILWAUKEE/SULLIVAN WI
700 PM CDT TUE SEP 25 2018

NOTE: "FAIR" INDICATES FEW OR NO CLOUDS BELOW 12,000 FEET WITH NO
SIGNIFICANT WEATHER AND/OR OBSTRUCTIONS TO VISIBILITY.


WIZ051-052-058>065-066-070>072-260100-
SOUTHEAST WISCONSIN
  
CITY           SKY/WX    TMP DP  RH WIND       PRES   REMARKS
MILWAUKEE      MOCLDY    65  62  90 NW6       29.79R                  
6HR MIN TEMP:  65; 6HR MAX TEMP:  82; 6HR PCP:  0.14;                

WAUKESHA       MOCLDY    61  57  88 W6        29.81R                  
MILWAUKEE/TIMM PTCLDY    63  57  82 W5        29.80S                  
RACINE         MOCLDY    65  61  87 NW6       29.82R                  
6HR MIN TEMP:  65; 6HR MAX TEMP:  78; 6HR PCP:  0.15;                

BURLINGTON     MOCLDY    63  60  91 CALM      29.81R                  
6HR MIN TEMP:  63; 6HR MAX TEMP:  82; 6HR PCP:  0.09;                

KENOSHA        FAIR      67  67 100 W5        29.80R                  
6HR MIN TEMP:  67; 6HR MAX TEMP:  81; 6HR PCP:  0.14;                

FOND DU LAC    FAIR      61  59  93 SW5       29.78R                  
6HR MIN TEMP:  61; 6HR MAX TEMP:  77; 6HR PCP:  0.09;                

SHEBOYGAN      FAIR      62  60  93 W9        29.77S                  
6HR MIN TEMP:  62; 6HR MAX TEMP:  80; 6HR PCP: TRACE;                

WEST BEND      FAIR      61  61 100 W7        29.79R                  
JUNEAU         CLOUDY    59  59 100 W6        29.83R                  
$$


SKY/WX - Weather  TMP - Temperature  DP - Dew Point  RH - Relative Humidity
WIND - Wind Direction/Speed PRES - Barometric Pressure